RH
92 93 94 96 94 95 95 93 90 93 96 97 97 97 98 98 97 97 98 98 98 98 98 98 99 98 99 99 99 99 99 98 99 100 100 99 99 99 98 94 94 96 95
92 91 93 96 95 95 94 92 92 96 96 97 97 97 98 98 96 90 96 98 98 98 98 98 99 96 99 99 99 99 99 98 99 99 99 99 99 99 98 98 96 94 96
94 92 95 96 96 94 92 92 94 96 96 96 96 97 98 97 97 97 97 97 98 99 99 98 99 98 98 99 99 100 100 99 99 99 100 99 100 99 99 98 99 98 95
92 94 95 96 97 96 94 95 94 96 96 96 96 97 97 97 96 96 95 96 97 97 97 93 93 98 99 99 99 100 99 98 98 99 99 100 99 99 99 99 99 99 98
90 94 94 97 96 96 95 95 95 96 96 95 96 96 94 91 92 96 95 94 95 95 96 95 92 88 90 95 99 99 98 99 99 99 99 99 99 100 99 100 99 97 99
84 90 96 97 97 97 96 93 96 96 96 96 96 93 91 79 92 94 94 96 96 96 94 86 84 79 83 88 93 94 94 96 96 97 99 99 99 98 99 99 97 99 99
90 93 96 98 97 98 96 95 96 92 89 96 96 90 88 91 95 92 91 97 94 92 91 80 68 64 70 74 81 85 89 91 91 90 98 97 98 98 97 97 96 96 97
98 98 99 98 97 98 98 95 96 90 88 93 94 85 84 85 94 91 88 95 96 95 94 91 82 74 67 61 62 67 76 88 85 81 86 86 95 95 92 92 94 98 98
98 98 98 98 99 98 98 96 96 91 91 88 85 80 83 84 92 90 87 90 89 90 90 88 83 87 80 76 66 68 70 70 73 84 85 85 89 95 95 98 98 98 99
98 99 98 98 98 99 96 96 95 96 95 85 85 84 82 82 88 94 85 82 82 83 86 76 78 85 91 80 77 85 90 90 78 73 80 80 83 86 82 90 90 95 96
99 98 98 99 99 99 98 98 98 98 89 87 81 80 75 82 74 92 93 70 76 74 81 77 71 83 84 93 88 83 79 87 83 91 88 80 84 90 91 94 93 97 97
98 99 99 99 99 99 99 99 98 98 95 93 90 98 94 84 86 88 92 84 77 68 74 69 62 79 74 69 66 75 81 77 79 93 91 80 79 84 91 91 92 93 93
98 99 98 98 98 99 99 99 99 98 98 99 98 98 98 98 93 83 85 82 78 61 53 67 80 75 72 69 81 76 74 77 75 79 87 77 72 77 92 92 90 85 84
98 98 93 93 93 95 99 100 99 99 99 99 99 99 98 84 71 76 79 66 71 66 69 64 66 67 73 72 76 73 85 73 66 69 72 78 87 81 80 93 92 95 91
96 90 92 93 95 97 98 98 99 100 99 99 98 97 97 85 77 84 75 66 61 64 66 70 65 70 80 86 84 80 74 70 64 68 64 66 66 70 68 80 73 85 94
97 98 99 98 98 98 99 99 91 95 97 99 96 93 90 89 86 82 80 78 75 72 60 71 81 90 74 71 74 83 83 70 77 71 69 66 66 59 57 60 76 71 70
98 98 99 99 100 99 99 99 99 94 90 89 90 96 93 90 83 80 78 76 81 65 54 68 83 78 72 76 78 76 70 75 80 82 69 70 62 63 64 64 68 68 69
96 96 98 99 99 98 98 98 98 97 96 95 88 88 87 85 83 79 76 69 64 78 79 77 79 75 74 75 81 80 79 74 75 84 76 74 71 74 73 68 67 68 67
97 98 98 98 98 97 97 97 95 94 94 94 93 86 85 82 83 82 79 59 63 71 76 81 83 78 72 73 77 80 79 76 74 76 77 76 76 77 72 74 68 71 67
96 93 96 98 98 97 98 97 96 94 92 89 86 81 84 78 71 66 67 63 64 66 72 77 76 80 70 72 80 79 76 76 78 78 76 80 82 80 75 73 72 69 64
91 87 89 88 92 96 98 97 94 96 91 85 77 72 77 65 61 61 60 63 62 63 64 70 73 75 74 79 77 78 77 74 75 75 78 80 79 79 81 82 79 75 72
56 62 58 56 66 75 87 89 84 81 83 78 80 77 84 74 65 66 70 69 67 70 70 68 63 66 70 78 81 82 81 79 79 79 79 78 76 79 79 79 75 73 71
54 51 52 60 62 64 63 66 67 71 68 71 78 76 77 78 74 69 64 57 60 78 80 79 75 91 96 92 91 96 97 97 93 89 87 81 77 74 74 74 70 70 69
53 53 62 65 72 74 73 69 71 69 70 67 64 64 64 67 64 85 96 90 85 85 85 85 84 86 87 88 87 92 92 93 92 93 90 84 82 80 76 74 68 66 68
73 71 70 71 67 68 66 67 67 76 78 68 70 75 78 79 84 87 88 87 84 80 77 78 80 75 67 65 65 74 86 90 90 94 93 93 90 85 79 74 72 64 61
68 70 74 76 74 73 69 64 74 75 71 72 73 74 74 77 80 92 96 92 87 82 72 68 67 65 66 68 72 79 86 88 83 91 95 96 94 93 91 91 86 79 70
Wind_Speed
4 6 5 5 5 5 6 4 3 5 5 6 5 6 6 6 6 7 7 8 8 7 7 7 7 5 4 3 2 2 2 3 4 2 2 4 5 6 6 7 7 7 8
4 5 5 6 5 5 5 5 4 6 6 5 6 6 6 7 7 8 8 7 7 8 7 7 7 5 7 5 4 4 2 3 3 5 2 3 5 5 5 7 6 6 6
5 5 6 5 5 5 5 5 6 6 5 6 6 6 6 6 6 7 6 6 8 7 6 6 6 7 7 4 4 4 3 3 4 5 3 2 3 2 5 5 5 5 5
6 5 6 5 3 3 5 6 5 5 5 6 5 5 6 6 5 6 7 7 7 7 7 8 8 7 6 5 5 5 4 6 7 6 4 3 3 3 3 2 2 3 3
7 7 6 5 5 3 5 5 6 5 5 5 5 6 6 6 4 5 6 6 6 7 7 6 6 10 15 11 4 5 5 6 5 5 3 3 2 2 2 2 2 1 3
5 6 5 7 5 4 4 6 6 6 5 6 5 6 6 3 8 7 5 5 6 6 6 6 6 10 11 15 16 14 7 5 5 3 2 2 2 1 2 2 2 1 1
2 5 6 5 8 5 4 5 6 6 4 5 6 6 6 5 8 9 10 5 6 6 6 6 6 5 8 7 13 15 15 15 8 4 4 3 2 2 3 2 2 1 1
5 5 2 7 8 5 3 5 5 5 5 5 5 5 6 5 7 9 10 6 6 6 6 6 6 6 6 7 7 9 8 8 7 5 5 4 3 3 4 2 2 3 2
4 5 4 4 4 7 6 6 5 6 5 4 4 4 6 5 8 6 7 6 5 5 5 6 5 3 4 7 7 7 7 6 6 10 11 11 11 5 6 4 2 3 2
6 3 2 2 3 4 8 7 4 4 6 6 6 5 6 5 9 1 6 4 4 3 4 5 9 6 2 5 6 5 6 2 2 4 5 6 8 7 8 3 2 2 1
6 5 2 3 3 2 6 5 6 7 7 6 6 4 5 6 6 7 5 3 4 3 2 3 4 7 7 7 6 3 2 4 1 3 3 3 4 5 4 4 3 2 3
7 5 3 5 3 2 8 8 8 8 7 5 5 4 3 4 10 10 3 5 5 3 2 2 2 7 7 7 5 4 3 3 3 2 2 1 2 2 2 2 3 3 2
6 5 5 5 4 5 6 7 7 6 6 4 3 3 2 3 4 9 11 9 9 4 3 3 5 7 7 6 8 7 5 4 4 3 2 1 2 2 4 3 2 2 2
3 3 4 5 5 6 5 4 5 5 5 4 3 4 2 3 3 3 4 4 6 4 3 3 4 4 5 3 4 5 4 2 3 2 1 2 2 2 1 1 1 2 2
4 2 4 4 5 6 6 4 4 3 2 4 3 3 4 3 2 2 3 3 2 2 2 3 3 3 3 3 3 3 3 3 3 1 1 0 1 1 2 1 1 1 1
3 3 3 3 4 4 4 4 11 8 8 8 6 4 1 4 6 4 3 3 4 3 4 2 2 1 2 1 1 1 2 2 1 1 0 1 1 2 2 2 1 1 2
4 4 3 4 4 4 3 3 5 4 8 9 8 5 3 6 4 3 3 5 4 2 3 1 1 1 1 0 1 1 1 1 1 1 1 1 1 1 1 2 2 1 2
5 5 4 4 4 4 3 3 3 3 3 1 4 3 2 3 1 3 4 4 2 4 1 2 3 3 2 2 2 2 1 1 1 1 2 2 2 1 2 2 2 2 1
5 4 4 3 3 3 3 3 3 3 2 2 1 2 1 1 2 1 2 2 2 1 1 2 3 4 4 3 3 2 2 3 2 1 2 2 2 1 3 3 3 4 3
5 8 5 4 3 4 3 4 4 3 2 2 2 3 2 2 1 1 2 2 2 3 3 3 3 4 5 4 3 3 3 3 3 3 3 3 3 3 4 4 3 3 2
4 4 8 5 5 5 4 5 4 4 4 4 5 3 5 3 3 3 3 3 4 4 4 3 2 4 3 3 3 3 3 5 4 4 4 4 3 3 4 4 4 4 4
4 5 5 6 5 5 5 4 5 6 5 5 4 3 9 3 2 3 3 4 5 5 4 4 2 0 1 1 3 3 3 4 4 4 5 5 5 5 4 3 4 3 3
4 4 5 4 4 4 4 3 4 5 5 4 3 3 3 3 4 4 5 5 3 4 3 2 4 5 5 5 5 4 4 4 5 5 5 5 5 5 4 4 4 4 4
5 5 5 5 4 4 5 4 3 3 4 4 4 4 4 3 2 4 4 5 6 6 6 7 7 8 6 5 5 4 4 4 4 4 6 5 5 5 4 4 5 5 4
5 6 6 6 5 5 5 5 4 5 4 5 6 6 6 6 6 5 5 5 5 6 7 6 5 7 7 8 7 7 8 9 7 9 4 5 6 7 5 5 5 6 5
6 7 6 5 5 4 3 5 5 5 6 6 6 6 6 6 5 4 4 5 6 6 6 4 6 7 7 6 7 9 7 7 8 10 5 5 5 5 6 6 7 5 6
Wind_Direction
166 128 147 148 143 138 121 112 72 52 67 70 61 49 46 38 19 45 41 29 42 32 25 39 37 25 36 38 48 95 140 127 126 111 80 46 56 61 53 57 53 55 52
148 128 167 155 158 147 131 125 100 78 62 70 63 58 46 40 30 43 48 33 41 41 27 38 33 30 33 22 27 54 121 143 132 124 96 80 70 52 67 65 54 50 51
135 158 171 168 180 156 140 111 106 102 84 57 59 57 62 49 45 50 54 49 51 41 28 34 28 40 38 29 39 42 28 56 86 128 104 82 95 71 76 60 54 44 41
140 173 178 177 163 175 138 114 113 113 101 84 65 62 58 63 56 59 56 54 53 50 42 40 37 38 38 37 47 47 49 71 88 95 86 90 89 87 68 84 71 38 45
156 168 196 139 151 176 126 125 118 115 106 105 93 68 44 45 28 70 73 73 67 56 37 32 38 58 55 53 65 52 62 73 83 96 91 95 101 122 151 125 89 85 43
179 172 140 143 152 162 149 151 126 119 121 108 88 85 64 30 353 80 99 85 62 52 42 29 26 36 42 54 62 65 71 91 88 83 71 79 97 89 104 133 129 149 81
154 139 143 176 170 166 171 138 137 137 127 109 97 83 64 31 18 80 89 85 79 64 55 41 39 27 40 46 50 53 50 52 61 101 99 68 71 131 130 122 153 12 81
98 69 114 163 166 161 160 164 135 138 135 124 106 94 82 40 45 87 86 87 81 68 60 53 55 43 43 62 64 58 43 41 38 59 77 62 72 117 144 159 139 105 86
58 63 36 357 156 170 185 170 146 139 119 97 100 91 78 45 27 102 95 89 81 71 59 50 52 39 46 56 70 71 58 35 40 64 63 51 43 85 106 99 124 128 156
105 70 340 28 287 216 178 156 127 102 109 105 87 59 62 57 22 50 125 119 97 76 51 38 40 48 74 85 90 96 82 17 55 36 17 18 34 36 48 60 166 185 125
109 93 19 23 319 260 137 118 116 110 105 99 94 72 59 31 24 26 169 136 121 104 80 45 18 28 63 97 100 108 180 168 96 109 92 39 26 31 24 39 47 162 144
101 100 59 44 341 22 124 114 112 117 115 102 101 81 50 36 27 21 39 120 110 106 86 85 50 46 57 52 32 9 354 166 112 118 97 45 18 344 337 20 42 63 55
97 97 91 56 27 22 89 116 112 113 116 113 111 89 75 48 41 34 51 68 72 75 94 104 77 58 60 43 49 42 44 82 99 86 131 278 243 278 305 330 350 30 40
110 109 90 88 71 57 58 67 104 113 115 124 126 121 110 76 59 42 53 43 59 60 74 49 69 90 67 59 23 30 44 53 121 128 178 279 312 340 307 331 328 351 5
94 102 85 77 75 75 52 40 83 58 111 141 152 139 140 142 148 101 70 86 79 58 73 46 26 21 17 9 20 28 29 33 42 39 59 4 346 356 321 343 320 6 198
122 117 96 103 82 85 100 82 44 57 60 83 114 125 91 122 146 136 105 81 66 54 56 46 16 56 88 36 35 14 22 21 5 27 336 297 324 326 331 331 293 227 263
153 127 126 108 118 130 120 121 121 31 64 58 57 85 114 162 160 125 70 88 40 62 82 70 123 165 201 161 139 154 191 249 277 283 265 280 277 272 333 309 317 253 260
142 140 140 151 129 131 151 133 130 127 120 59 25 40 83 135 104 43 25 74 40 33 99 157 180 189 205 228 242 204 228 275 332 321 308 296 299 276 314 298 297 303 277
159 163 162 140 135 161 155 133 123 120 128 126 24 4 31 33 4 26 36 129 160 224 249 252 225 201 215 223 239 245 229 254 247 257 279 282 286 260 276 275 275 271 255
173 161 162 164 176 185 186 173 173 173 177 211 213 218 165 108 219 240 235 202 204 236 244 256 249 230 216 215 216 219 248 268 273 262 268 274 273 239 255 263 260 271 260
169 163 181 176 193 201 201 211 201 191 194 205 228 210 188 179 205 210 230 229 233 250 257 253 247 243 271 252 222 228 244 261 256 261 264 270 268 282 245 244 259 239 249
169 160 168 196 191 181 204 197 206 215 209 208 219 207 186 205 253 289 284 280 267 252 235 229 251 33 76 22 342 327 305 295 298 289 277 271 279 278 274 256 252 251 248
162 175 180 161 175 183 181 194 231 226 224 234 195 189 189 200 214 247 270 286 334 3 27 81 87 71 48 42 35 28 25 349 322 312 292 283 272 265 256 257 260 242 233
178 158 144 147 137 146 140 147 138 111 131 121 126 135 134 153 132 78 51 52 58 54 58 64 68 71 57 47 41 29 7 348 324 323 322 322 306 300 287 274 263 241 248
134 130 124 126 133 129 118 110 99 79 71 85 92 96 97 86 78 72 75 80 83 77 66 63 63 68 64 60 48 33 6 358 358 340 330 348 338 329 315 292 284 275 265
109 113 113 119 117 110 108 116 113 106 100 94 92 85 84 82 77 73 80 83 79 75 76 65 70 70 62 49 36 27 19 8 6 350 351 5 7 358 352 329 316 303 281